Regional Weather Roundup
Issued by NWS

Home | Current Version | Previous Version | Graphics & Text | Print | Product List | Glossary On
Versions: 1 2 3 4 5 6 7 8 9 10 11 12 13 14 15 16 17 18 19 20 21 22 23 24 25 26 27 28 29 30 31 32 33 34 35 36 37 38 39 40 41 42 43 44 45 46 47 48 49 50
000
ASUS43 KLOT 161709
RWRIL

ILLINOIS REGIONAL WEATHER ROUNDUP
NATIONAL WEATHER SERVICE CHICAGO/ROMEOVILLE IL
1200 PM CDT MON OCT 16 2017

NOTE: "FAIR" INDICATES FEW OR NO CLOUDS BELOW 12,000 FEET WITH NO
SIGNIFICANT WEATHER AND/OR OBSTRUCTIONS TO VISIBILITY.

* THESE STATIONS ARE NOT UNDER NWS QUALITY CONTROL. THEY ALSO MAY NOT
  REPORT WEATHER SUCH AS PRECIPITATION OR FOG.

ILZ001-002-007-009-015-016-024-161800-
NORTHWEST ILLINOIS

CITY           SKY/WX    TMP DP  RH WIND       PRES   REMARKS
MOLINE         SUNNY     61  40  45 NW3       30.32F
STERLING*      SUNNY     58  44  60 W6          N/A
SAVANNA*       SUNNY     56  41  57 CALM      30.32S
$$

ILZ003-004-008-010-011-017-018-161800-
NORTH CENTRAL ILLINOIS

CITY           SKY/WX    TMP DP  RH WIND       PRES   REMARKS
ROCKFORD       SUNNY     56  41  57 SW6       30.32S
FREEPORT*      SUNNY     57  36  45 NW8       30.33R
ROCHELLE*      SUNNY     56  42  58 W10       30.32S
DE KALB*       SUNNY     58  42  56 W9        30.31F
PERU*          SUNNY     58  38  47 SW10G16   30.32F
$$

ILZ005-006-012>014-019>023-161800-
NORTHEAST ILLINOIS

CITY           SKY/WX    TMP DP  RH WIND       PRES   REMARKS
CHICAGO-OHARE  SUNNY     58  39  49 SW9       30.30F
CHICAGO-MIDWAY SUNNY     58  39  49 SW13      30.30F
AURORA         SUNNY     58  42  55 SW10      30.31F
LANSING*       SUNNY     58  42  54 W15       30.32F
JOLIET*        SUNNY     60  39  46 W8        30.32F
WAUKEGAN       SUNNY     57  37  47 SW9       30.28F
DUPAGE AIRPORT SUNNY     57  42  57 SW9       30.30F
KANKAKEE*      SUNNY     59  37  43 W9        30.34F
WHEELING       SUNNY     58  39  49 SW9       30.31F
MORRIS*        SUNNY     59  39  47 W9        30.31F
ROMEOVILLE*    SUNNY     58  40  51 SW12      30.32F
NORTHERLY ISL    N/A     57  34  41 S7          N/A
$$

LMZ740>746-161800-
SOUTHERN LAKE MICHIGAN

STATION/POSITION SKY/WX   TEMP    WIND        PRES    VSBY  WAVE
                          AIR SEA DIR/SP/G                  HT/PER
                          (F)     (DEG/KT/KT) (MB)    (MI)  (FT/S)
SOUTHERN BUOY              53 62  290/ 10/ 10 1026.4          2/ 4
WILMETTE HARBOR            55 57  210/  6/ 10   N/A           2/ 6
HARRISON CRIB              56     240/  9/ 11   N/A
BURNHAM HARBOR             56     200/  9/ 12   N/A
CALUMET HARBOR             57     250/  5/ 12 1025.8F
BURNS HARBOR               55     270/  6/  9 1027.4S
MICHIGAN CITY              52     240/ 11/ 12   N/A
MICHIGAN CITY 6N           53 57  250/  8/ 12   N/A           4/ 6
ST. JOSEPH                 54 55  280/ 10/ 14 1027.2R         4/ 4
$$

ILZ025>027-034>036-040-047-049-050-058-095>099-161800-
WEST-CENTRAL ILLINOIS

CITY           SKY/WX    TMP DP  RH WIND       PRES   REMARKS
QUINCY         SUNNY     60  40  47 W8        30.37S
GALESBURG*     SUNNY     60  39  46 NW5       30.35F
MACOMB*        SUNNY     60  39  46 W3        30.37F
JACKSONVILLE*    N/A    N/A N/A N/A MISG        N/A
PITTSFIELD*    SUNNY     62  38  41 SW9       30.38F
$$

ILZ028>032-037-038-041>044-048-051>054-059>061-161800-
CENTRAL ILLINOIS

CITY           SKY/WX    TMP DP  RH WIND       PRES   REMARKS
PONTIAC        SUNNY     61  39  45 W13       30.35S
BLOOMINGTON    SUNNY     59  39  47 W10       30.36F
DECATUR        SUNNY     59  39  47 W7        30.38S
PEORIA         SUNNY     60  41  49 SW8       30.35F
LACON*         SUNNY     60  38  44 W9        30.33F
LINCOLN*       SUNNY     62  40  45 W7        30.36F
SPRINGFIELD    SUNNY     64  37  36 W9        30.37F
TAYLORVILLE    SUNNY     61  39  44 SW7       30.38S
$$

ILZ033-039-045-046-055>057-062-063-161800-
EAST-CENTRAL ILLINOIS

CITY           SKY/WX    TMP DP  RH WIND       PRES   REMARKS
CHAMPAIGN      SUNNY     61  36  39 W9        30.37S
DANVILLE*      SUNNY     59  37  43 W6        30.33F
RANTOUL*       SUNNY     60  41  49 W7        30.36S
MATTOON        SUNNY     59  40  49 W8        30.37S
PARIS*         SUNNY     58  38  46 W6        30.37S
$$

ILZ079-100>102-161800-
SOUTHWEST ILLINOIS

CITY           SKY/WX    TMP DP  RH WIND       PRES   REMARKS
BELLEVILLE     SUNNY     61  40  46 NW5       30.39F
CAHOKIA*       SUNNY     64  38  38 VRB3      30.40F
SPARTA*        SUNNY     58  40  49 N5        30.42S
$$

ILZ064>066-069>071-074>076-080>082-084>086-088>090-092>094-161800-
SOUTH-CENTRAL ILLINOIS

CITY           SKY/WX    TMP DP  RH WIND       PRES   REMARKS
CARBONDALE     SUNNY     60  40  47 VRB7      30.40F
CAIRO*         SUNNY     60  39  46 N10       30.40S
EFFINGHAM*     SUNNY     60  39  46 NW5       30.40S
MARION         SUNNY     61  37  41 N7        30.41F
MT. VERNON     SUNNY     59  40  49 VRB3      30.40F
CENTRALIA*     SUNNY     60  40  47 NW3       30.39F
METROPOLIS*    SUNNY     60  39  46 NE8       30.40F
$$

ILZ067-068-072-073-078-083-087-091-161800-
SOUTHEAST ILLINOIS

CITY           SKY/WX    TMP DP  RH WIND       PRES   REMARKS
LAWRENCEVILLE  SUNNY    N/A N/A N/A W6        30.38F
FLORA*         SUNNY     59  39  46 N3        30.39F
FAIRFIELD*     SUNNY     60  36  41 NW3       30.38F
HARRISBURG*    SUNNY     59  39  47 N9        30.40F
ROBINSON*      SUNNY     58  39  49 N3        30.39F
CARMI*         SUNNY     59  38  46 N9        30.39F
$$

ABBREVIATIONS USED IN REMARKS
   TC - TEMPERATURE IN CELSIUS
  WCI - WIND CHILL INDEX
   HX - HEAT INDEX
  VSB - VISIBILITY
$$





USA.gov is the U.S. government's official web portal to all federal, state and local government web resources and services.